RH
2 2 2 2 2 2 2 2 2 2 2 2 2 2 2 2 2 2 2 2 3 4 4 4 6 8 9 11 13 14 17 20 22 24 25 26 27 27 27 29 28 25 23 24 27 29 31 32 34 38 40 39 35 30 27 27 28 29 29 28 27 26 25 24 22 20 17 15 12 10 8 6 5 5 5 7 11 15 20 26 32 36 38 40 40 41
2 2 2 2 2 2 2 2 2 2 2 2 2 2 2 2 2 2 2 2 3 4 4 5 7 8 9 11 12 14 16 19 23 24 26 27 27 27 28 30 28 26 26 28 30 32 34 36 38 42 43 39 34 29 27 27 26 27 28 27 27 27 26 25 23 20 18 16 13 10 8 7 5 5 5 6 9 16 23 30 36 39 40 42 43 43
2 2 2 1 2 2 2 2 2 2 2 2 2 2 2 2 2 2 2 3 3 4 5 5 7 9 10 11 12 13 15 19 22 23 24 26 27 28 30 31 30 29 29 32 35 36 38 40 42 46 44 38 33 29 27 26 25 26 28 28 28 28 28 26 24 21 19 17 14 11 8 7 6 5 5 5 8 13 21 29 34 37 39 40 41 41
2 2 1 2 2 2 2 2 2 2 2 2 2 2 2 2 2 2 3 3 3 4 5 6 7 9 10 11 11 13 15 18 20 20 21 24 27 30 33 33 32 31 34 37 39 39 42 44 46 48 44 38 33 29 27 25 25 26 28 29 30 30 29 27 25 22 20 17 14 11 8 7 6 5 5 5 7 9 13 19 23 27 31 33 34 37
2 2 2 2 2 2 2 2 2 2 2 2 2 2 2 2 2 2 2 3 3 4 4 6 7 8 10 10 11 12 14 16 16 17 19 23 28 32 35 36 35 35 39 43 43 43 45 47 49 49 45 39 35 31 28 26 25 26 28 29 31 31 31 29 26 23 20 17 14 11 9 7 6 5 5 5 5 6 7 9 11 13 16 19 22 26
2 2 2 2 2 2 2 2 2 2 2 2 2 2 2 2 2 2 2 2 3 3 4 5 6 7 8 9 10 12 13 14 15 16 19 22 28 34 37 39 39 40 45 48 48 47 48 50 51 49 45 41 37 33 30 28 27 26 28 30 32 33 32 30 27 24 21 18 15 12 10 8 7 6 5 5 5 5 6 6 6 7 8 10 12 14
2 2 2 2 2 2 2 2 2 2 2 2 2 2 2 2 2 2 2 2 3 3 3 4 4 5 7 7 9 11 12 13 14 15 18 22 29 36 39 43 45 46 51 53 52 51 51 52 52 49 46 43 41 36 33 31 29 28 29 32 35 35 33 31 28 25 22 19 15 13 11 9 7 6 5 5 5 5 6 6 6 7 8 8 8 10
2 2 2 2 2 2 2 2 2 2 2 2 2 2 2 2 2 2 2 2 2 3 3 3 4 5 6 6 7 9 11 13 14 15 18 23 30 36 42 51 53 53 57 59 57 55 53 52 52 49 47 46 44 40 37 34 32 32 32 34 37 36 35 33 30 26 23 20 16 13 11 9 8 7 6 5 5 6 6 6 7 7 8 9 9 10
2 2 2 2 2 2 2 2 2 2 2 2 2 2 2 2 2 2 2 2 2 2 3 3 4 5 5 5 6 8 10 13 15 16 18 23 29 35 47 60 60 58 62 65 63 59 55 54 51 49 49 48 47 44 40 37 36 35 35 37 38 38 37 34 31 28 24 20 17 14 12 10 8 7 6 6 5 6 6 6 7 8 9 10 10 11
2 2 2 2 2 2 2 2 2 2 2 2 2 2 2 2 2 2 2 2 2 2 3 3 3 4 5 6 7 7 9 12 15 16 18 22 27 34 49 62 62 61 65 69 68 64 60 57 53 50 50 50 50 49 45 40 39 39 38 38 39 39 39 37 33 29 25 21 17 14 12 10 9 7 6 6 6 5 6 6 7 8 9 10 11 12
2 2 2 2 2 2 2 2 2 2 2 2 2 2 2 2 2 2 2 2 2 2 3 3 4 5 4 5 7 7 8 11 14 16 17 20 26 35 47 55 60 63 67 70 72 70 66 62 58 54 52 53 54 53 50 45 42 43 41 39 39 40 41 39 35 31 26 22 18 15 13 11 9 8 7 6 6 6 6 7 7 8 10 11 12 13
2 2 3 2 2 2 2 2 2 2 2 2 2 2 2 2 2 2 2 2 2 2 2 2 4 5 5 6 8 8 9 12 14 16 17 19 25 33 40 47 54 59 65 72 75 75 72 67 65 61 55 55 58 58 55 50 47 46 43 40 41 42 43 41 38 33 28 23 19 15 13 12 10 9 8 7 7 6 6 7 7 8 10 11 13 14
3 2 3 2 2 3 2 2 2 2 2 2 2 2 2 2 2 2 2 2 2 3 3 2 4 5 6 7 8 9 10 12 14 16 16 19 23 27 32 41 48 52 59 69 76 78 76 72 72 70 61 58 62 64 61 56 51 49 46 43 43 45 45 43 40 36 31 25 20 17 14 12 11 9 9 8 7 7 7 7 7 8 10 11 13 15
3 3 3 3 3 3 2 2 2 2 2 2 2 2 2 2 2 2 2 2 2 3 3 3 3 4 6 7 8 9 10 11 12 15 17 18 21 23 27 37 44 48 52 60 69 76 76 73 75 76 69 63 66 69 66 62 56 51 49 46 46 48 47 44 42 38 34 27 21 18 15 13 11 10 9 8 7 7 7 7 8 8 9 11 13 14
3 3 3 3 3 3 3 2 2 2 2 2 2 2 2 2 2 2 2 2 2 3 3 4 4 4 5 6 7 8 9 10 10 13 17 19 20 22 27 36 44 48 50 53 59 66 69 70 73 78 76 69 69 73 71 66 59 53 52 50 49 50 49 46 44 41 36 30 23 19 16 14 12 11 10 9 8 8 8 8 8 8 9 10 12 13
3 3 3 3 3 3 3 2 3 3 2 2 2 2 2 2 3 2 2 2 2 3 3 4 4 4 5 6 6 7 8 9 10 12 16 18 19 22 27 36 44 48 49 51 54 56 61 66 70 77 79 73 72 76 75 69 62 56 55 54 52 51 51 48 46 44 39 32 26 20 17 15 13 12 10 9 9 8 8 8 8 8 8 10 11 12
3 3 3 3 3 3 3 3 3 3 2 3 2 3 3 3 3 3 3 3 2 3 3 4 4 3 4 5 5 6 8 9 10 12 15 18 20 23 28 35 44 48 49 52 52 53 58 63 66 75 81 77 74 77 77 71 64 60 58 56 55 53 52 50 48 46 42 35 28 22 18 16 14 12 11 10 9 9 9 9 9 9 8 9 11 11
3 3 3 3 3 3 3 3 3 3 3 3 2 3 3 3 3 3 3 3 3 3 3 4 5 4 3 4 5 6 8 9 10 12 15 18 20 23 28 35 42 47 50 52 53 54 57 59 63 76 85 80 76 78 78 73 67 63 60 59 58 55 53 53 51 49 45 38 31 25 20 17 15 13 12 11 10 9 9 9 9 9 9 9 10 10
3 3 3 3 3 3 3 3 3 3 3 3 3 3 3 3 3 3 3 3 3 3 3 4 6 6 5 5 5 7 7 8 10 11 14 18 20 23 27 34 42 47 50 52 53 54 55 57 63 77 88 85 79 79 77 74 70 67 63 61 60 58 56 56 54 52 48 41 34 28 22 19 16 14 13 12 11 10 9 9 9 9 9 9 9 10
3 3 3 3 3 3 3 3 3 3 3 3 3 3 3 3 3 3 3 3 3 4 3 3 6 8 8 6 7 8 7 8 9 11 14 17 21 23 26 33 42 48 51 52 52 53 55 59 63 73 86 89 84 80 78 75 73 71 67 63 63 62 60 59 57 54 51 44 37 30 24 20 17 15 14 13 11 10 9 9 10 9 9 9 9 10
3 3 3 3 3 3 3 3 3 3 3 3 3 3 3 3 3 3 3 4 4 4 4 3 5 9 10 9 9 9 9 10 10 11 14 17 21 24 27 34 43 50 52 52 52 53 57 62 64 69 80 89 89 84 81 79 77 75 71 66 67 68 65 63 60 56 54 48 40 33 26 21 18 16 15 14 12 11 10 9 10 9 9 9 8 9
3 3 3 3 3 3 3 3 3 3 3 3 3 3 3 3 4 4 3 4 4 4 5 4 4 9 11 8 8 9 10 11 11 12 14 17 21 24 28 36 45 50 52 52 51 53 57 62 65 68 75 85 90 88 86 85 82 80 75 69 70 73 71 68 64 59 56 51 43 35 29 23 19 17 16 15 13 12 11 10 10 9 9 8 8 9
3 3 3 3 3 3 3 3 3 3 3 3 3 4 4 4 4 4 4 4 4 5 6 5 4 7 9 8 9 10 11 13 14 14 14 17 22 24 28 37 45 50 51 50 49 51 56 60 64 70 75 80 87 89 90 91 89 85 80 75 75 79 78 73 69 64 59 54 46 38 31 25 21 18 16 15 14 13 12 10 10 9 9 8 8 8
3 4 3 3 3 3 3 3 3 4 4 4 4 4 4 4 4 4 4 4 4 4 6 6 4 5 8 8 10 11 12 14 17 17 16 18 22 24 28 35 43 47 48 46 45 47 52 57 62 70 75 77 82 87 91 95 94 91 86 81 80 85 85 80 74 69 63 57 49 41 34 27 22 19 17 16 15 14 13 11 10 10 9 8 8 8
3 4 4 3 3 3 4 4 3 4 4 4 4 4 4 4 4 4 4 4 4 4 5 6 5 5 6 8 11 12 13 15 18 20 19 19 22 24 27 33 39 42 43 41 40 41 46 54 62 69 74 77 80 83 88 95 98 97 94 90 88 91 92 87 81 74 67 60 52 44 36 30 24 21 18 17 16 15 14 12 10 10 9 8 8 8
3 3 3 3 4 3 4 4 4 4 4 4 4 4 4 5 4 5 4 4 5 4 5 7 6 5 5 7 10 12 13 14 17 20 20 20 23 25 26 30 34 36 38 38 38 39 43 51 61 69 73 76 79 80 83 92 99 100 99 96 95 96 98 95 89 81 72 65 55 46 39 32 26 22 19 18 17 16 15 13 11 10 9 9 8 7
3 3 3 3 4 4 4 4 4 4 4 4 5 4 5 5 5 5 5 5 5 4 5 6 6 5 5 5 8 10 10 12 15 17 18 20 23 25 26 28 30 32 34 36 37 39 43 49 60 69 72 76 80 80 81 88 95 98 100 100 98 100 102 100 97 89 79 70 59 49 41 34 28 23 20 19 18 17 17 14 12 10 9 9 8 7
3 3 4 3 4 4 4 4 4 4 4 5 5 5 5 5 5 6 5 5 5 5 5 5 5 6 6 5 8 10 9 11 13 15 16 18 22 25 26 28 29 30 32 35 37 39 43 50 59 67 72 75 80 81 79 83 89 94 99 100 100 102 103 102 101 96 87 77 65 53 43 35 28 23 20 19 18 18 18 15 13 11 9 9 8 7
3 4 4 4 4 4 4 5 4 5 5 5 6 5 5 6 6 6 6 6 6 5 5 5 5 6 6 6 8 11 11 11 13 16 16 18 22 25 27 28 30 31 32 35 37 39 43 50 59 66 71 74 77 80 79 80 84 89 96 101 102 102 102 101 102 100 94 84 72 58 46 36 29 24 21 20 19 18 18 17 14 12 10 9 8 8
4 4 4 4 4 5 5 5 5 5 5 6 6 6 6 6 6 6 6 6 6 5 5 5 5 6 7 7 8 10 12 13 15 18 19 20 24 27 28 29 31 33 35 36 38 39 43 49 58 65 69 71 73 77 79 78 80 83 89 94 97 98 100 100 101 101 97 89 79 65 50 37 30 25 23 21 20 19 19 18 16 12 11 9 8 8
4 4 4 4 4 4 5 5 5 5 6 6 6 6 6 6 6 6 7 6 6 6 5 5 5 5 6 7 7 9 11 13 15 18 20 21 25 28 28 30 33 35 37 40 41 41 43 48 56 62 66 68 68 72 76 77 77 78 80 82 85 90 97 100 100 100 98 93 86 73 55 40 32 27 24 22 20 20 19 19 17 14 11 10 8 8
4 4 4 4 5 5 5 6 6 6 6 6 7 6 6 6 6 6 6 6 7 6 5 5 6 6 6 6 6 8 11 14 17 19 20 21 26 29 28 29 33 36 40 42 44 45 45 48 54 60 63 64 64 67 70 72 73 74 75 76 78 83 93 99 99 100 100 96 92 81 63 45 35 28 25 23 21 20 20 19 18 15 12 10 9 8
5 5 5 5 5 5 5 6 6 6 6 7 7 7 6 6 6 6 5 6 7 6 5 6 6 6 7 7 6 6 9 13 17 21 21 21 25 28 28 29 33 37 42 44 47 49 49 49 51 56 60 61 61 62 65 66 68 70 72 73 73 77 88 97 99 100 101 99 95 88 72 53 39 31 26 24 21 20 20 20 19 17 14 11 10 9
6 6 6 6 6 5 6 6 6 6 6 7 7 7 6 6 5 5 5 5 6 6 6 5 6 7 8 7 6 6 8 12 17 22 22 22 25 27 28 30 33 38 43 46 49 52 53 52 51 52 55 57 58 59 61 62 63 66 70 74 73 74 82 94 100 100 100 100 98 94 82 63 46 34 27 24 22 21 21 21 20 18 15 12 10 9
6 6 6 7 6 6 6 6 6 6 6 7 7 7 6 6 5 5 5 5 6 6 6 5 6 8 7 7 7 7 9 12 18 24 25 24 27 28 29 31 34 39 44 47 50 54 56 56 54 53 53 53 54 56 58 59 61 63 67 74 76 75 77 86 98 102 101 100 99 97 89 73 54 39 29 24 22 21 21 21 21 19 16 14 11 10
6 6 7 7 7 7 7 7 7 6 6 7 7 7 6 5 5 5 4 5 6 6 5 5 6 7 6 6 7 9 10 12 18 26 28 26 28 30 30 33 35 40 46 49 52 55 57 58 58 56 56 55 54 55 55 56 59 61 64 71 77 79 78 80 90 99 102 101 99 98 94 81 63 46 32 25 22 21 22 22 22 21 18 15 13 11
7 7 7 7 7 7 7 7 7 6 6 7 7 7 6 5 6 5 4 4 5 5 5 6 6 6 6 7 8 10 12 13 18 27 29 28 30 32 32 34 36 41 47 51 54 56 58 59 59 58 58 57 58 58 57 57 59 60 63 68 75 82 83 81 84 93 100 101 99 100 97 87 72 54 37 27 22 22 22 22 23 22 19 17 14 12
7 7 8 8 7 8 8 7 7 6 5 7 8 7 7 6 5 5 5 4 4 5 6 6 6 7 8 9 10 13 15 17 20 27 30 29 30 32 33 35 37 42 48 53 55 56 58 59 59 59 59 59 60 61 61 62 63 64 65 69 76 84 88 87 86 89 96 100 100 100 99 93 80 62 44 30 23 22 22 22 23 23 21 19 15 13
8 8 8 8 7 8 8 8 7 6 6 8 9 8 7 7 6 6 5 4 5 6 6 6 7 9 10 11 13 16 20 23 24 27 30 30 31 33 35 36 38 42 48 53 55 57 58 59 59 60 60 60 60 61 62 65 69 71 73 75 81 88 94 95 92 90 93 99 100 100 101 98 87 70 53 36 25 22 22 22 24 24 22 20 17 14
8 8 7 8 8 8 8 8 7 7 8 10 10 9 9 8 7 7 6 5 5 7 8 8 9 12 14 16 18 21 26 29 29 30 32 32 33 35 36 38 40 43 48 53 55 57 58 60 60 61 61 61 61 63 67 71 75 80 83 84 86 93 99 100 98 94 92 96 100 100 101 101 93 77 60 43 29 23 22 22 23 24 23 22 19 15
7 7 7 7 8 8 8 9 8 7 9 11 11 11 12 11 10 10 9 8 7 9 11 13 14 17 20 22 24 27 31 34 35 35 35 35 36 37 39 40 42 44 49 53 56 59 61 62 63 65 66 66 67 69 73 79 83 87 91 93 93 96 101 102 101 99 95 95 99 100 100 101 98 85 67 49 34 25 22 22 23 25 24 23 21 17
8 7 7 7 8 9 9 9 8 8 12 13 13 14 16 16 17 16 13 11 12 14 16 18 21 24 26 27 29 32 35 39 40 40 40 39 40 40 42 43 45 47 52 57 61 65 66 67 69 72 73 73 74 76 80 85 89 92 96 100 99 99 101 102 102 101 98 96 98 100 99 101 101 93 75 55 39 29 24 22 23 25 25 24 22 19
9 9 9 9 9 11 11 10 10 15 20 21 19 20 24 25 25 24 19 15 17 20 21 22 25 30 32 32 33 37 42 46 48 48 47 46 45 45 47 49 51 54 60 66 71 74 74 74 76 79 82 81 80 83 86 90 94 95 98 101 101 100 100 101 102 102 101 99 97 99 100 99 101 98 84 62 44 33 27 23 22 25 26 25 24 21
10 12 15 14 13 17 18 14 15 24 33 31 27 29 34 34 32 30 26 22 21 24 26 26 28 33 37 39 39 42 49 56 58 58 56 54 53 54 55 56 60 67 75 79 81 82 82 83 85 87 88 87 85 87 90 93 96 99 100 100 100 100 100 101 101 101 102 101 99 99 100 99 100 101 92 72 50 36 28 24 23 25 26 26 25 23
12 16 20 18 17 24 27 21 22 32 39 36 33 36 40 40 38 36 34 31 29 31 34 35 36 38 43 49 52 53 59 67 72 70 66 64 65 64 63 67 75 82 86 85 83 83 86 90 93 93 93 90 89 92 95 97 100 103 102 100 99 100 100 101 101 100 101 101 100 99 100 99 99 101 97 81 59 41 31 26 23 25 26 26 26 25
21 23 25 23 24 32 35 30 32 41 41 34 33 39 43 41 38 36 37 39 41 44 47 49 51 53 56 62 65 65 69 78 83 82 78 77 77 74 75 81 86 85 82 80 80 82 87 92 94 95 94 90 87 89 93 95 96 98 99 99 100 100 100 100 101 100 99 100 101 100 100 100 99 100 100 90 69 48 35 28 25 25 26 26 26 26
38 37 35 34 37 43 46 43 44 47 42 32 33 41 46 44 41 41 45 50 54 59 63 65 68 70 71 74 77 76 77 84 92 93 90 89 87 85 85 86 82 76 73 72 72 72 74 79 83 86 86 81 75 74 76 77 80 87 91 93 97 100 100 99 101 102 100 99 100 101 100 100 100 99 100 96 80 58 41 32 27 25 26 27 26 27
61 60 52 49 52 57 61 60 57 53 44 37 42 49 50 47 47 51 58 65 71 75 79 80 82 83 83 86 89 89 88 92 98 99 96 94 93 91 87 80 72 67 65 61 55 51 49 50 53 57 60 57 52 49 50 52 58 64 67 73 84 96 101 100 99 102 102 99 99 100 101 100 100 99 100 98 89 69 49 38 31 26 25 27 27 28
82 86 73 67 71 77 78 73 69 63 52 47 55 62 62 61 63 67 74 81 86 90 92 90 90 92 94 97 99 99 97 96 99 99 97 95 94 90 83 75 67 62 56 46 36 30 25 22 23 29 32 30 27 27 30 34 36 35 39 50 63 75 89 99 101 100 102 101 99 99 100 101 99 99 100 99 94 77 55 40 34 28 25 26 27 27
94 100 95 92 93 96 93 86 85 84 71 57 56 62 66 70 75 81 88 91 94 98 98 94 91 93 99 102 103 103 101 97 95 94 91 90 92 89 82 74 62 50 41 30 20 15 13 11 11 14 14 13 14 16 19 22 19 15 21 35 39 40 57 83 99 102 101 101 100 99 99 101 100 99 100 100 97 84 60 41 36 31 25 26 28 27
86 92 101 102 99 101 100 94 96 97 84 70 67 69 69 70 71 75 79 79 81 85 89 88 85 85 90 96 99 98 94 90 86 83 80 84 90 86 72 57 41 30 23 18 13 12 13 13 12 12 10 10 10 11 12 13 11 8 12 20 20 16 25 50 81 100 102 100 101 100 98 100 101 100 100 101 99 92 71 49 39 34 27 25 27 27
Wind_Speed
16 17 17 17 18 19 20 22 23 24 25 26 28 29 31 31 32 34 34 34 34 33 33 32 29 28 27 27 27 27 27 27 28 28 28 29 31 34 36 35 35 36 37 39 41 42 42 42 43 44 46 48 50 53 54 55 56 57 59 60 62 64 66 67 69 71 74 76 78 78 78 77 75 72 69 65 60 56 52 49 47 46 45 44 43 42
16 16 16 16 18 19 20 21 22 24 25 26 28 30 31 32 32 33 34 34 34 33 33 32 30 29 28 28 28 28 28 28 28 29 29 31 33 35 36 36 36 37 38 40 42 43 44 43 43 44 46 48 51 53 55 55 57 58 59 61 63 64 66 67 69 71 74 76 78 78 78 78 76 72 69 65 61 57 53 51 49 48 48 47 46 45
16 14 15 16 17 18 20 21 22 23 25 27 28 30 31 32 32 33 33 33 34 33 33 32 31 30 29 28 28 28 29 29 30 31 31 32 34 36 37 36 36 37 38 41 43 45 45 44 44 44 46 49 52 54 55 56 58 59 60 62 63 65 66 67 69 71 74 76 78 78 78 78 76 73 69 66 62 59 55 53 51 50 50 49 49 47
15 13 14 16 16 17 19 21 22 23 25 27 29 30 30 31 32 33 33 34 34 34 33 33 31 30 29 29 30 30 30 30 31 32 33 33 34 36 37 36 36 37 39 42 45 46 46 45 44 45 47 50 52 55 56 57 59 60 61 62 64 65 66 68 69 71 74 76 77 78 78 77 76 73 69 66 63 60 57 55 53 52 50 50 49 49
13 14 15 15 15 17 18 20 22 24 26 27 29 29 30 31 32 33 34 34 34 34 34 33 32 31 30 30 31 31 31 31 32 33 34 34 35 36 37 36 36 38 40 43 45 47 47 46 46 46 48 51 53 55 57 58 59 61 62 63 64 66 67 68 70 71 73 75 77 77 77 76 74 72 69 65 62 59 57 55 54 53 51 50 49 48
13 14 15 15 16 18 20 22 23 24 26 27 28 29 29 31 32 33 34 35 35 35 35 35 34 33 32 32 32 32 32 33 33 34 35 35 35 37 37 37 37 38 41 44 46 47 48 48 48 48 50 52 54 56 58 59 60 61 63 64 65 66 67 69 70 71 73 75 76 77 77 76 74 71 68 65 62 59 57 56 55 55 53 52 50 49
13 14 15 17 18 19 21 22 22 23 25 26 27 28 30 31 32 33 34 36 36 37 37 36 36 35 34 33 33 33 34 34 34 35 35 36 36 37 38 38 38 40 42 45 47 48 49 49 49 50 52 53 54 56 58 60 61 62 63 64 65 66 67 69 70 71 73 74 75 76 77 76 75 72 69 66 63 61 59 58 57 56 56 54 53 51
13 14 16 18 19 20 20 21 22 23 24 26 27 28 30 32 33 34 34 36 37 38 38 38 37 36 36 36 35 35 35 35 36 36 37 37 37 38 39 39 40 41 43 45 47 49 50 51 51 52 53 54 55 57 59 61 62 63 64 65 65 66 68 69 70 71 73 74 75 76 76 76 75 73 70 67 64 62 60 59 58 57 56 56 55 54
14 15 16 18 18 20 20 21 22 23 24 26 27 29 31 32 33 34 35 36 37 38 39 39 39 37 37 39 38 37 36 36 37 37 37 38 38 38 39 40 40 41 43 46 48 49 51 52 53 53 54 54 55 57 59 61 63 64 64 65 66 67 68 69 70 71 72 74 74 75 75 75 75 73 71 68 65 63 61 59 58 57 57 56 56 55
14 16 16 17 18 19 20 21 23 24 26 27 29 30 32 33 34 34 36 37 38 39 40 40 41 40 39 40 40 40 39 38 38 38 38 38 38 39 39 40 41 42 44 46 48 50 51 53 54 54 54 55 56 57 60 62 63 64 65 65 66 67 68 69 70 71 72 73 74 75 75 75 75 73 71 69 67 64 62 61 59 58 57 56 56 55
14 15 16 17 19 20 21 22 24 25 27 28 30 31 33 34 34 35 36 37 39 41 41 41 41 41 42 42 41 41 41 39 39 39 38 38 39 39 40 40 42 43 44 46 48 50 52 53 54 55 55 55 56 58 60 62 63 64 65 66 67 67 68 69 69 71 72 73 74 74 75 75 75 74 72 70 68 65 64 63 62 60 59 58 57 56
14 15 17 18 19 21 22 23 25 26 28 29 31 32 34 35 35 35 36 37 40 42 44 44 42 42 43 43 41 41 41 40 39 39 39 39 39 40 41 42 43 44 45 47 49 50 52 53 55 56 56 56 56 58 59 62 63 64 65 66 67 68 68 69 70 71 72 73 74 74 75 75 75 75 74 72 70 67 66 65 65 64 62 61 60 59
14 15 17 18 20 22 23 25 26 27 29 30 32 33 34 35 36 37 38 39 41 43 45 46 45 43 44 44 42 42 41 40 40 40 40 40 39 40 42 43 44 45 46 47 49 51 52 53 55 56 57 57 57 58 59 61 63 65 65 66 67 68 69 69 70 71 72 73 74 75 75 75 76 75 75 73 71 69 68 68 68 68 67 65 64 62
15 16 18 19 21 23 24 26 27 28 29 30 32 33 35 37 38 39 40 41 42 43 44 47 47 45 44 44 44 43 41 41 41 40 41 41 40 41 42 43 45 46 47 48 49 51 53 54 55 57 58 58 57 58 59 61 63 65 66 67 67 68 69 70 71 72 73 74 74 75 75 76 76 76 75 74 72 71 70 70 71 71 71 70 68 67
16 17 19 21 22 24 25 26 27 29 30 31 33 34 36 38 40 41 42 43 44 44 43 45 48 47 45 45 45 44 42 42 42 41 41 41 42 42 43 44 45 47 48 49 50 52 53 55 55 57 58 58 58 58 59 61 63 65 66 67 68 68 70 71 72 73 73 74 74 75 76 76 76 76 76 75 73 72 71 71 72 73 74 74 73 72
17 19 20 22 24 25 27 28 29 30 31 32 34 36 37 39 40 41 43 44 45 45 43 44 47 48 46 45 46 46 45 44 43 43 42 42 43 42 43 44 45 47 48 50 51 52 54 55 55 56 58 58 58 58 59 61 63 65 66 67 68 69 70 72 72 73 73 74 75 75 76 77 77 77 76 75 74 73 73 73 73 75 77 77 77 76
18 20 21 23 25 26 28 29 30 32 32 33 35 37 38 40 41 42 44 45 47 47 45 43 47 50 48 46 47 48 46 45 44 43 43 43 43 42 42 43 44 46 48 50 51 53 54 55 55 56 57 58 58 58 59 61 64 65 66 67 68 69 71 72 73 73 73 74 75 76 77 77 77 77 76 76 75 74 74 74 74 76 78 79 80 80
20 21 22 24 26 27 29 31 32 33 34 35 36 38 39 41 42 44 45 47 48 49 48 45 46 51 50 48 48 48 46 46 44 43 43 43 43 42 42 43 44 46 48 50 51 53 54 55 56 56 57 58 58 59 59 61 64 65 66 67 68 69 71 72 73 73 73 73 74 75 77 78 78 78 77 77 76 76 75 74 75 77 79 81 82 82
21 22 23 25 27 29 30 32 33 34 35 36 37 39 41 42 44 45 46 48 49 51 51 48 45 48 51 49 48 47 46 46 45 43 43 42 42 42 41 42 44 45 47 49 51 52 54 55 56 57 58 58 58 59 60 62 64 65 66 67 68 69 70 72 73 73 73 73 74 75 76 77 78 78 78 77 77 77 76 75 75 77 79 82 84 85
22 24 25 26 28 30 31 33 34 35 37 37 38 40 41 43 45 46 47 48 50 51 53 52 46 44 49 49 48 47 47 47 46 44 42 42 42 42 41 42 43 45 46 48 50 52 53 55 56 57 58 59 58 59 60 61 63 64 65 66 67 69 70 71 72 73 73 73 74 75 76 77 78 78 78 78 77 77 77 76 76 77 80 82 85 86
24 25 27 28 29 31 32 33 35 36 38 39 40 41 42 43 45 46 47 47 49 50 51 54 48 42 44 47 47 47 46 46 47 45 43 42 41 42 42 42 43 44 46 48 50 52 53 55 57 57 59 59 59 59 60 61 63 64 65 66 67 69 70 71 72 73 73 73 73 74 76 77 78 78 78 78 78 78 77 77 77 78 80 82 85 87
25 26 27 29 30 31 32 34 35 36 38 40 41 42 43 44 46 47 48 48 50 49 49 52 50 42 42 47 47 47 46 45 46 47 44 42 41 42 42 42 42 44 45 48 50 51 53 55 57 58 59 60 60 60 61 61 62 63 64 65 66 68 70 70 72 72 73 73 73 74 75 76 77 78 78 79 78 78 78 78 78 79 80 82 85 87
26 27 28 30 32 32 33 34 35 36 39 41 42 44 44 45 46 48 49 49 50 49 47 50 51 44 44 48 47 47 46 44 45 47 45 43 41 42 43 42 42 43 45 47 49 51 53 55 56 58 59 60 61 61 62 62 62 63 64 65 66 67 69 70 71 72 73 73 73 73 74 76 77 78 78 78 78 78 78 78 79 79 80 82 85 87
28 29 30 30 32 33 33 34 36 36 39 41 43 46 46 46 47 48 50 50 51 50 48 49 52 48 46 48 47 46 46 44 43 45 46 44 41 41 43 42 42 44 45 47 49 51 53 54 56 58 59 61 61 62 63 63 62 63 63 64 65 67 69 70 71 72 72 72 73 73 73 75 76 77 78 78 78 78 78 79 79 80 81 82 85 87
30 31 32 32 32 34 34 36 37 38 39 42 45 47 48 48 49 49 51 51 52 52 50 49 51 50 48 47 46 46 46 43 42 44 45 44 42 41 42 43 43 44 46 48 50 51 53 54 56 58 59 61 62 62 63 64 64 63 63 64 65 66 68 70 71 72 72 72 72 72 73 74 76 77 77 78 78 78 78 79 80 80 81 82 84 87
32 33 35 35 35 37 38 38 40 40 41 43 45 48 49 49 50 50 51 52 52 54 52 49 52 52 50 48 46 46 47 45 43 44 45 45 43 42 43 43 44 45 46 48 50 51 53 54 55 58 59 61 62 62 63 65 65 65 64 63 65 66 67 69 70 71 72 72 72 72 72 73 75 76 77 78 78 78 79 79 80 81 81 82 84 86
33 34 35 37 37 38 39 40 41 41 42 43 45 49 50 51 51 51 51 52 53 55 52 50 53 54 52 51 49 48 49 48 46 46 47 46 44 43 43 43 44 46 47 49 51 52 53 54 55 58 59 60 62 63 63 65 66 66 64 63 64 66 67 68 69 70 71 71 71 71 72 73 74 75 76 77 78 79 79 80 80 80 81 82 84 86
35 35 36 37 37 38 40 41 43 43 44 44 46 49 51 52 52 52 52 53 54 55 54 52 53 53 53 53 51 50 51 50 48 49 49 48 45 43 43 43 44 45 47 49 51 52 53 54 56 58 59 60 62 63 64 66 67 67 65 64 64 66 67 68 68 69 70 71 71 71 71 72 73 74 75 77 78 79 79 79 80 80 81 82 84 86
37 37 37 39 39 39 40 43 44 45 46 45 46 49 51 52 53 52 52 53 54 56 55 53 53 52 52 54 52 50 52 52 50 50 51 49 46 44 44 43 43 45 46 48 50 52 53 54 56 58 59 60 62 63 64 65 68 68 67 65 65 66 67 68 67 68 68 69 70 70 70 71 72 73 74 76 77 78 79 79 79 80 81 82 83 86
40 40 40 40 40 40 42 44 46 47 48 47 47 50 52 53 54 54 54 54 55 56 55 54 53 51 51 54 53 50 51 52 50 50 50 49 46 44 44 44 44 44 45 47 49 51 53 54 56 57 59 60 62 63 64 65 67 68 68 67 66 67 68 68 67 67 67 68 69 69 69 70 71 72 74 75 77 78 79 79 79 80 80 81 83 85
42 42 42 43 42 41 43 46 47 49 50 49 49 52 53 54 55 55 56 56 55 55 55 55 54 52 51 53 53 51 50 51 51 50 51 49 45 44 45 44 44 44 45 46 47 49 52 54 55 57 59 61 62 63 64 65 66 67 68 68 69 69 69 68 67 66 66 66 68 68 69 69 70 71 72 74 75 77 78 78 79 79 80 81 82 84
44 45 45 46 45 44 45 48 49 50 52 52 52 53 54 56 56 57 57 57 56 56 56 55 54 54 53 53 53 52 51 51 50 49 51 49 45 44 45 45 45 45 45 46 46 47 50 53 55 57 58 60 62 63 64 65 66 67 68 69 69 70 70 69 67 66 66 66 67 67 68 68 69 70 71 73 74 75 77 78 78 79 79 81 82 83
46 47 47 48 48 47 48 50 51 52 54 54 54 55 56 57 58 57 57 57 57 57 57 56 55 55 54 53 54 53 52 51 49 49 51 50 46 45 47 47 46 45 45 46 46 46 47 51 54 57 58 60 61 63 64 65 66 68 69 69 70 69 69 69 68 67 66 66 66 67 67 68 68 69 70 72 73 74 76 77 78 78 79 80 81 82
48 49 50 51 51 50 50 52 53 54 55 56 56 57 58 58 58 57 57 56 57 57 57 57 56 55 54 54 55 55 54 52 50 48 51 51 47 46 47 47 46 46 45 45 45 45 46 48 51 55 57 60 62 63 65 66 67 68 69 70 70 70 69 69 68 67 66 65 65 66 67 67 67 68 69 71 72 73 74 76 77 78 78 79 81 82
50 52 52 53 54 54 53 55 56 55 55 57 58 58 58 58 58 58 56 55 56 58 58 58 57 55 54 54 55 55 55 54 49 46 48 50 47 46 47 46 46 45 45 45 45 45 46 47 49 52 55 58 61 63 66 67 68 69 69 70 71 71 70 70 69 68 66 65 64 64 65 66 67 67 68 70 71 72 73 75 76 77 78 79 80 81
52 54 54 55 56 57 56 57 58 58 56 57 58 57 57 58 59 59 56 53 54 57 58 58 57 56 55 55 55 55 55 55 49 43 46 49 46 45 46 45 45 45 45 45 45 45 46 47 49 50 53 55 58 61 64 66 68 70 70 70 71 71 71 71 70 69 67 65 64 63 64 65 66 67 67 68 70 71 72 73 75 76 77 78 79 80
54 55 56 57 58 58 58 58 59 59 57 56 57 57 57 58 59 60 58 54 54 57 58 57 57 56 55 55 56 56 55 56 50 43 44 47 46 44 45 44 44 45 45 45 45 45 47 48 49 51 52 54 56 58 60 63 66 69 71 71 71 71 71 71 71 70 69 66 64 63 63 64 65 66 66 67 68 70 71 72 74 75 76 77 79 80
56 56 56 57 57 57 58 59 59 59 57 55 55 57 58 58 59 60 59 56 55 56 56 56 56 56 56 56 57 56 56 56 52 45 44 46 45 44 45 44 44 45 45 45 45 46 48 49 50 52 53 54 56 57 59 61 63 66 69 72 72 72 71 71 71 71 70 68 65 64 63 63 64 65 65 66 67 69 70 71 72 74 75 76 78 79
56 56 56 57 56 56 57 58 58 59 56 52 53 55 57 58 58 59 59 57 55 55 55 56 56 56 57 57 57 57 56 55 53 48 46 46 45 45 45 44 44 45 45 45 46 46 48 50 51 53 54 54 56 57 58 60 62 64 67 70 73 73 72 71 71 71 70 69 67 64 63 62 63 63 64 65 66 67 69 70 71 73 74 75 77 77
56 55 55 56 55 55 56 56 57 57 53 50 51 53 55 56 56 57 58 58 56 54 55 56 56 56 57 57 57 56 54 53 52 49 46 46 45 44 44 44 43 44 44 45 46 47 49 50 52 53 55 55 56 57 58 60 62 63 66 69 72 74 73 72 70 70 70 69 67 65 63 62 62 62 63 64 65 66 68 69 70 72 73 74 75 76
55 55 55 55 54 54 55 55 56 54 50 48 49 51 53 55 54 54 56 57 55 54 55 55 55 55 56 56 56 55 52 50 49 47 45 44 43 43 44 43 43 43 44 45 47 48 49 51 53 54 55 56 57 57 59 60 62 64 66 68 70 73 73 72 70 69 69 69 68 66 64 62 61 61 61 62 63 65 66 68 69 70 71 72 73 74
54 54 54 53 53 53 52 53 55 52 47 46 48 50 52 52 51 51 54 54 54 54 54 54 54 54 55 54 54 54 52 49 48 46 45 43 43 43 43 43 42 43 44 46 48 49 50 52 54 55 56 57 57 58 59 61 63 64 66 68 69 71 73 73 71 68 68 68 68 67 65 62 61 60 60 61 62 63 65 66 67 69 70 71 72 72
51 52 51 51 51 51 50 51 52 49 45 44 46 49 51 51 49 51 53 53 52 53 54 54 54 53 54 54 54 53 52 50 48 47 45 44 43 43 44 43 43 43 45 47 49 50 51 52 54 55 56 57 58 59 60 62 64 65 67 68 69 71 73 73 71 68 66 67 68 68 65 63 61 60 60 60 60 62 63 64 66 67 68 69 70 71
50 49 48 48 49 48 47 47 46 43 42 43 45 47 50 50 49 51 54 53 52 52 53 54 53 53 53 54 53 53 52 51 49 48 46 44 44 44 44 44 44 45 46 48 50 51 52 53 54 56 57 58 59 60 61 63 65 66 67 69 70 71 72 73 71 67 65 65 67 68 67 64 61 60 59 59 59 60 61 63 64 65 66 67 68 69
50 49 48 48 48 46 45 45 43 40 40 45 48 49 50 50 50 52 53 53 52 52 52 53 53 52 52 53 53 53 52 51 49 47 45 44 43 43 43 44 44 46 47 49 51 52 52 53 55 56 58 59 60 61 62 64 65 66 67 68 69 70 71 73 72 68 64 64 66 67 67 65 62 60 59 58 58 59 60 61 63 64 65 65 66 67
51 51 51 51 49 47 44 41 40 41 43 48 52 53 53 53 53 53 53 53 52 51 51 52 53 52 52 53 54 53 53 51 48 45 44 43 42 42 43 44 45 46 48 49 51 52 53 54 55 56 58 59 61 62 63 64 65 66 67 67 68 69 70 72 71 68 64 63 65 67 67 66 63 61 59 58 57 57 58 60 61 62 63 64 65 65
51 51 52 51 48 46 42 37 38 45 50 52 54 55 55 56 55 54 54 52 50 50 50 52 53 53 53 54 55 54 54 52 49 45 43 43 41 41 43 44 45 47 48 50 51 52 53 54 55 56 58 60 61 62 63 64 66 66 66 65 65 67 69 71 72 69 64 63 65 67 67 66 64 61 59 58 57 56 57 58 59 61 62 62 63 63
52 53 52 50 47 46 44 40 42 50 53 53 56 58 58 58 57 55 54 53 51 51 52 53 55 55 55 55 56 56 54 52 50 47 45 43 41 41 43 45 47 48 49 50 51 53 54 55 56 57 58 60 61 61 62 63 64 65 65 64 63 64 68 71 73 72 67 63 64 67 68 67 65 62 59 58 56 55 56 57 58 59 60 61 61 62
51 53 52 51 50 50 50 48 50 53 50 48 53 57 58 58 57 55 54 54 54 55 54 54 56 56 57 57 56 56 54 52 49 48 47 45 43 43 45 47 48 48 48 50 52 53 54 55 56 57 58 59 60 60 60 61 62 64 64 63 61 62 64 68 72 75 72 66 63 66 68 67 66 63 60 58 57 55 54 55 57 58 59 60 60 60
51 53 53 55 57 57 54 51 53 53 46 42 47 53 55 56 56 55 55 55 55 56 56 55 54 55 56 58 57 55 53 50 49 49 48 47 47 46 47 48 47 47 48 50 51 53 54 55 56 57 58 58 58 58 58 59 60 61 62 62 61 61 61 63 67 73 75 71 64 64 67 68 67 65 61 59 57 55 53 54 55 57 58 58 59 59
50 52 53 56 59 59 56 51 50 50 46 45 48 52 55 56 56 56 57 57 57 57 57 56 55 53 52 54 56 54 51 49 49 49 48 48 49 48 47 47 46 46 48 50 51 53 54 56 56 57 57 57 56 56 56 57 58 59 60 61 61 61 61 61 62 67 73 74 67 63 64 67 67 66 63 60 58 56 53 52 54 55 56 57 58 58
Wind_Direction
55 54 49 46 44 41 40 37 32 29 26 24 22 21 19 17 14 11 10 9 7 5 2 0 358 355 352 350 348 345 344 342 339 337 336 336 335 336 338 340 341 344 347 348 348 348 347 345 345 345 345 345 345 346 346 347 349 350 351 352 353 354 353 353 353 353 353 353 353 352 351 351 351 351 350 349 347 345 342 339 336 334 332 329 326 324
51 50 46 45 42 38 36 33 29 25 23 21 20 19 18 14 11 9 8 7 6 3 1 359 357 354 351 350 347 345 344 342 339 337 337 337 336 337 339 341 343 346 348 349 350 350 348 347 346 345 345 345 346 347 347 348 350 352 353 353 354 354 354 353 353 353 354 354 354 353 352 352 352 352 352 351 348 345 341 338 335 332 330 327 325 323
43 41 42 41 40 35 33 30 25 22 20 18 17 16 15 12 9 7 6 5 4 2 359 358 357 353 351 349 346 344 344 342 340 339 339 338 337 338 340 341 344 347 348 350 351 351 349 347 346 345 345 346 347 348 348 349 351 353 354 354 355 354 354 353 353 354 354 355 355 354 353 353 353 353 353 352 349 346 342 338 334 331 328 326 324 322
36 33 37 36 34 32 30 27 24 20 18 16 15 13 11 9 7 6 5 4 2 360 358 358 356 352 350 347 345 345 345 343 342 341 340 339 338 339 340 342 345 347 349 350 351 351 350 348 346 345 345 347 348 348 349 350 352 353 354 355 355 355 354 353 353 354 355 355 355 354 354 353 354 354 354 353 351 348 344 339 336 332 329 326 324 322
31 30 33 31 28 28 27 24 20 18 16 14 13 9 7 6 5 4 4 2 0 358 357 356 354 352 350 347 345 345 345 344 343 342 341 340 339 339 340 342 345 348 349 351 351 351 350 348 346 345 346 347 348 348 349 351 352 354 355 355 355 355 354 354 354 354 355 356 355 355 354 354 354 354 355 354 352 349 346 342 339 336 333 330 327 324
27 27 28 26 22 22 22 19 16 13 13 12 10 6 4 4 3 3 2 0 359 357 356 354 353 352 350 348 346 345 345 345 344 343 342 341 339 339 340 342 344 347 349 350 351 351 351 349 347 346 347 348 348 349 349 351 352 354 355 356 356 355 355 354 354 355 355 356 356 355 355 355 354 355 355 355 354 352 349 346 343 340 338 335 333 330
24 22 23 22 18 16 17 15 11 9 8 8 5 2 2 2 1 1 360 358 357 355 353 352 351 352 350 349 347 346 346 346 345 344 343 342 341 339 340 342 344 347 349 350 351 351 351 349 348 347 347 348 348 349 349 351 352 354 355 356 356 356 355 355 355 355 355 356 356 355 355 355 355 356 356 356 355 354 352 349 346 344 341 339 337 335
19 18 19 19 16 13 12 10 8 6 5 3 360 358 360 360 359 358 357 356 354 353 351 350 349 350 350 350 349 349 348 346 346 346 344 343 341 340 340 343 345 346 348 349 349 350 350 350 349 348 348 348 348 349 350 351 352 353 355 356 356 356 356 355 355 355 356 356 356 355 355 355 355 356 356 357 357 355 353 351 349 346 344 342 340 338
14 14 14 14 11 8 6 4 3 3 2 0 358 357 357 357 356 355 354 353 351 350 350 349 348 349 350 350 351 351 350 348 347 347 345 343 341 340 341 343 344 344 346 348 348 349 350 350 349 348 348 348 348 349 350 351 352 353 354 356 356 356 356 356 356 356 356 356 355 355 355 355 355 356 357 357 357 356 355 353 351 348 346 344 341 339
10 9 8 8 6 2 0 360 359 359 360 358 357 356 355 355 353 352 352 350 348 347 348 348 347 347 349 350 351 352 352 350 349 347 345 344 341 340 341 342 342 342 343 346 347 347 348 349 349 348 347 347 348 349 350 351 352 353 354 355 356 356 356 355 355 356 356 355 355 355 355 355 356 356 357 358 358 357 356 354 353 350 348 345 343 340
5 3 2 2 360 356 355 356 356 356 357 356 355 354 354 353 351 350 349 347 345 345 346 347 347 347 348 351 352 353 352 351 349 346 345 344 342 341 341 341 341 341 341 343 345 346 347 348 348 348 347 347 348 349 350 351 352 353 354 355 356 356 356 355 355 356 355 355 355 355 355 355 356 356 357 358 358 358 357 356 354 352 350 347 345 342
357 356 357 356 354 353 352 353 353 352 353 352 352 352 351 350 348 347 347 346 345 345 344 345 347 348 348 351 353 353 352 351 349 346 345 344 343 342 341 341 341 340 340 341 343 344 345 346 347 348 347 347 348 349 350 351 351 352 353 355 356 356 355 355 355 356 355 355 354 354 355 355 355 356 357 357 358 358 357 356 355 354 351 349 347 344
352 351 351 350 349 350 349 349 350 350 349 349 350 349 348 346 346 346 346 346 345 344 343 344 346 348 349 350 352 353 352 350 348 346 345 345 344 342 342 342 341 340 340 340 342 343 343 344 346 347 347 347 348 349 350 350 351 352 353 354 356 356 355 356 356 356 355 355 354 354 354 354 355 356 357 357 358 357 357 356 355 354 352 350 348 346
347 346 346 346 346 346 346 346 347 347 346 346 347 346 345 344 344 345 346 344 343 343 344 343 344 348 349 349 350 352 351 349 349 347 346 346 345 344 343 342 341 340 340 340 341 341 342 343 344 346 347 347 348 349 350 350 350 351 353 354 356 356 356 356 356 356 355 355 354 354 354 354 355 356 356 357 358 357 357 356 355 354 353 351 350 348
341 342 342 343 343 343 342 343 343 343 343 344 345 344 344 344 343 344 344 342 341 342 344 343 342 346 350 349 349 350 349 349 349 348 347 346 346 345 343 342 341 340 340 340 340 341 341 342 343 345 347 348 349 349 349 350 350 351 352 354 356 356 356 356 356 356 355 354 354 354 353 354 355 356 357 357 357 357 357 356 355 354 353 352 351 349
335 338 340 339 340 340 339 339 340 341 341 342 343 343 343 342 342 342 341 340 339 340 343 344 341 343 348 348 347 348 348 348 349 349 347 346 346 345 342 341 340 339 340 340 341 341 341 343 344 345 347 348 349 350 349 349 350 350 352 354 356 357 357 357 357 356 355 355 354 353 353 353 354 355 357 357 357 357 357 356 356 355 354 352 351 350
331 335 337 336 337 337 337 337 338 338 339 341 342 342 341 341 340 340 339 338 338 339 342 344 341 341 345 347 346 347 347 347 349 349 347 346 345 344 341 340 340 339 340 341 342 342 343 344 345 346 347 349 349 349 349 349 349 350 351 354 356 357 357 357 357 356 356 355 354 353 353 353 354 355 356 357 357 357 357 357 356 355 354 353 352 351
329 331 333 333 334 335 335 336 336 336 337 339 340 340 339 339 339 338 337 336 337 338 341 345 343 341 343 346 346 347 347 345 347 349 347 345 344 343 340 339 339 339 339 340 341 343 344 345 346 347 348 349 350 349 349 349 349 349 351 353 355 357 357 357 357 357 356 355 354 354 353 353 354 355 356 357 357 357 357 357 356 356 355 353 352 352
326 328 330 331 331 332 334 334 334 334 336 337 338 338 338 338 337 336 336 336 336 338 339 344 346 342 341 345 345 345 346 344 346 348 347 344 342 341 340 338 338 338 339 340 341 343 345 346 347 348 349 350 350 350 349 349 349 349 350 352 354 356 357 357 357 357 356 355 354 354 353 353 353 354 355 356 357 357 357 357 357 356 355 354 353 352
323 325 328 329 329 330 332 333 333 333 334 335 335 336 336 335 335 335 335 335 335 337 338 341 347 344 340 343 344 343 345 344 343 346 346 344 341 340 339 338 338 338 338 339 341 343 346 347 348 350 350 350 350 350 350 349 349 349 349 351 354 356 357 357 357 357 356 355 354 354 353 353 353 354 355 356 357 357 358 358 357 357 356 355 354 353
322 324 326 327 328 329 330 331 331 331 332 332 332 333 333 333 333 333 335 334 334 337 338 339 345 346 340 341 342 341 344 343 341 344 346 344 342 339 339 338 337 337 338 339 341 344 346 348 349 350 351 351 351 350 350 350 349 348 349 350 353 355 356 357 357 356 356 355 354 354 353 353 353 354 355 356 357 357 358 358 358 357 356 355 355 354
320 322 324 325 325 326 327 328 329 330 330 330 330 331 331 332 332 332 333 334 333 336 337 337 343 346 339 338 340 340 342 342 339 341 344 344 342 339 338 337 336 336 337 338 340 343 346 348 349 351 352 352 352 351 351 350 349 348 349 350 353 355 356 356 357 356 355 355 354 354 353 353 353 353 354 355 357 357 358 358 358 358 357 356 356 355
317 320 322 323 323 323 325 326 327 328 328 328 328 329 330 330 331 331 331 333 333 335 336 335 339 343 339 338 340 339 340 341 338 339 342 343 341 338 336 335 335 335 337 338 340 343 345 347 349 351 352 353 353 353 352 351 349 348 349 350 352 354 355 356 356 356 355 355 354 353 353 353 352 353 354 355 356 357 358 358 358 358 357 357 357 356
315 316 318 320 321 321 323 323 324 326 327 327 327 327 328 329 330 330 329 331 332 333 335 334 336 341 339 338 339 338 339 341 337 336 340 342 341 338 335 334 334 335 337 338 340 342 345 347 348 350 352 352 352 353 353 351 349 348 349 351 352 353 354 355 355 355 354 354 354 353 353 352 352 353 354 355 356 357 358 358 358 358 358 358 357 357
313 313 314 315 316 317 318 319 321 324 325 325 325 324 326 327 327 328 328 329 331 332 334 334 334 338 338 338 339 337 337 340 336 334 337 340 340 337 335 334 334 335 337 339 341 342 344 346 348 349 351 352 352 352 352 352 350 349 349 350 351 352 352 353 354 354 353 353 353 352 352 352 352 353 354 355 356 357 357 358 358 358 358 358 358 357
310 312 313 314 315 316 317 318 320 322 323 323 323 322 323 324 325 326 326 328 329 330 333 333 332 335 336 336 337 336 336 338 337 333 335 338 338 337 335 334 334 335 337 339 341 342 344 345 347 349 350 351 351 352 352 352 350 349 349 350 350 351 351 351 352 353 353 352 352 352 352 352 352 353 354 355 356 357 357 358 359 359 358 358 358 358
308 311 312 313 316 317 317 318 318 319 320 321 321 320 321 322 324 324 325 327 327 328 331 332 330 332 333 334 335 334 334 337 337 334 335 338 337 336 336 335 334 336 337 339 341 342 344 346 347 348 349 350 351 351 353 353 352 350 349 349 349 350 349 349 350 352 352 351 351 351 351 351 352 352 353 354 355 356 357 358 359 359 359 358 358 359
305 308 310 311 314 316 316 316 317 317 318 319 319 319 320 321 322 323 324 326 325 326 329 330 329 330 331 332 334 334 333 335 336 333 334 338 337 335 336 335 335 336 337 339 341 342 344 346 346 347 348 349 350 351 352 354 354 353 350 349 348 349 349 348 349 350 351 351 350 350 350 351 351 352 353 354 355 356 357 358 359 359 359 359 359 359
303 305 307 309 312 315 315 314 314 315 316 318 318 318 318 320 320 322 323 324 324 324 326 327 328 329 330 330 332 333 332 334 335 333 334 338 337 335 335 335 335 336 338 339 340 342 343 345 345 346 347 348 349 351 352 353 355 355 353 350 348 348 347 347 348 348 349 350 350 350 350 350 351 352 352 354 355 356 357 358 359 359 359 359 359 359
302 304 305 306 308 312 313 313 313 313 314 317 317 317 317 319 319 320 321 322 323 323 324 325 326 328 329 329 330 332 331 333 335 333 333 336 336 334 335 335 334 336 339 340 341 342 343 344 344 345 345 347 349 350 351 351 353 355 356 354 352 350 348 346 346 347 348 349 349 349 349 349 350 351 352 353 355 356 357 358 359 360 360 360 360 360
302 302 303 303 304 308 310 310 311 312 313 315 316 316 316 318 318 319 320 321 321 322 322 323 325 326 327 327 328 330 331 332 334 332 332 335 335 333 334 334 334 336 339 340 342 342 343 343 343 344 345 346 348 349 349 350 351 353 354 355 356 355 352 348 346 346 347 348 349 349 348 348 349 350 352 353 354 356 356 358 359 360 360 -0 0 0
302 302 303 303 303 305 307 308 309 310 312 314 315 315 316 317 317 318 319 320 320 320 321 322 324 324 326 325 326 328 330 332 334 331 330 333 334 332 333 334 334 336 338 340 342 342 343 343 342 343 344 346 347 348 348 349 350 351 352 353 355 356 356 353 348 346 346 347 348 348 348 348 348 350 351 352 354 355 356 357 359 360 0 0 1 0
302 303 304 303 304 305 306 307 308 309 311 313 313 313 314 315 315 316 318 318 318 318 320 321 322 323 324 325 325 327 329 332 334 331 329 333 334 332 333 334 335 336 338 339 340 341 342 344 343 343 344 345 346 347 347 348 348 349 350 351 353 355 356 355 351 348 346 346 347 348 348 347 348 349 350 352 353 355 356 357 358 360 0 1 1 1
303 303 304 305 305 306 307 307 308 309 311 311 311 312 313 313 314 315 316 317 316 317 318 320 321 322 323 324 324 326 329 331 334 331 328 331 334 333 333 334 334 336 337 337 339 338 340 343 345 344 344 345 345 346 346 346 347 348 349 349 351 353 355 355 353 350 347 346 346 347 347 347 347 348 350 351 353 354 355 356 358 359 0 1 2 1
303 304 305 305 306 306 307 307 307 308 310 310 309 310 311 312 312 312 314 316 315 315 316 318 319 321 322 323 324 326 328 331 335 332 327 330 333 333 333 333 332 334 335 336 337 337 338 341 344 345 345 345 345 345 344 345 345 346 347 348 349 351 353 354 354 351 348 346 346 347 347 347 347 347 349 350 352 353 355 356 357 359 -0 1 2 2
302 303 304 305 305 306 306 306 306 307 309 309 308 309 310 310 309 309 312 314 314 313 315 317 318 319 321 322 323 326 327 330 335 331 326 329 332 330 331 331 330 332 334 334 335 336 336 339 341 342 344 344 343 343 343 343 343 343 344 345 347 349 351 352 353 352 349 347 346 346 346 347 347 347 348 350 351 353 354 356 357 358 360 1 2 2
301 302 303 303 304 305 304 304 305 306 308 308 307 307 308 308 308 308 310 313 312 312 314 316 316 317 320 321 323 325 326 328 334 332 326 328 330 329 329 331 330 331 333 333 334 334 335 337 338 339 340 340 340 340 341 342 342 342 342 343 344 347 349 350 352 352 350 347 346 345 346 346 347 347 348 349 350 352 353 355 357 358 360 1 2 3
299 300 301 302 303 304 303 304 304 306 307 308 307 307 308 307 307 308 309 311 312 312 313 314 315 317 319 320 322 325 326 327 332 333 329 328 330 329 329 330 329 330 332 332 332 333 333 334 335 336 337 337 336 337 338 339 340 341 340 340 342 344 346 348 350 351 350 348 346 345 345 345 346 347 348 348 349 351 353 354 356 358 359 1 2 3
298 299 300 301 302 302 302 303 305 306 308 309 308 307 307 307 307 308 308 309 311 311 312 313 315 317 319 321 322 325 327 328 331 333 331 330 330 329 329 330 329 329 330 331 331 331 331 332 333 333 334 334 334 335 335 337 338 339 339 339 339 341 344 346 348 350 350 349 346 344 344 344 345 347 347 348 348 350 352 354 355 357 359 1 2 3
296 298 298 300 301 301 301 303 304 306 309 309 308 307 306 306 307 307 307 308 311 312 312 313 315 317 319 321 322 325 328 329 330 332 331 330 330 329 328 328 327 327 328 329 329 329 329 329 330 331 331 332 333 333 334 335 336 337 338 338 337 339 341 343 346 348 350 350 347 344 343 343 344 346 347 347 348 349 351 353 355 356 358 0 2 4
295 296 297 298 299 299 301 302 303 305 309 309 308 307 306 305 307 307 307 309 311 312 313 314 316 318 319 320 322 325 327 329 329 330 330 328 327 326 325 326 326 325 325 326 327 327 327 327 328 329 330 330 331 332 332 333 334 335 336 337 337 337 339 341 344 346 348 350 348 345 342 342 343 345 346 347 347 348 350 352 354 356 358 360 2 4
294 295 296 297 298 299 301 303 304 307 310 309 309 308 305 305 306 306 306 308 310 312 313 314 316 317 318 320 322 324 326 327 328 328 327 326 325 324 324 324 324 324 324 324 325 326 326 326 327 328 329 329 330 330 330 331 332 333 334 335 336 336 337 339 342 345 347 349 349 346 343 341 342 343 345 346 346 348 349 351 353 355 357 359 2 4
294 296 296 297 299 301 303 304 307 312 314 311 309 306 303 303 305 304 304 307 310 311 312 313 315 317 318 319 321 323 324 326 326 326 325 324 323 323 323 323 323 323 323 323 324 325 325 325 326 327 327 328 328 329 329 330 330 332 333 335 336 335 335 337 340 344 346 349 349 347 343 341 340 342 343 345 346 347 349 350 352 354 356 359 1 4
294 296 299 299 300 303 306 306 308 313 313 309 305 301 300 301 302 302 303 306 308 309 311 312 314 316 317 318 319 320 322 323 324 325 324 322 322 322 321 320 321 322 323 324 325 325 325 324 325 326 326 327 327 328 328 329 329 331 333 334 335 335 334 335 339 343 346 349 349 348 345 342 340 340 342 344 345 346 348 350 352 354 356 358 1 3
296 298 300 301 301 303 305 305 306 307 305 301 299 297 296 298 300 301 304 307 309 311 312 312 313 314 315 316 317 318 319 321 322 323 321 320 320 319 317 317 319 322 324 324 324 325 324 324 325 325 325 325 326 327 327 328 329 330 333 334 335 334 334 334 337 342 346 348 348 348 346 343 340 339 340 343 344 346 347 349 351 353 355 357 0 3
300 300 300 301 302 303 303 304 304 300 295 293 293 294 295 296 299 302 305 308 310 312 312 312 312 313 314 314 314 315 317 318 319 320 318 317 317 316 314 316 319 322 323 323 323 324 324 324 324 324 324 324 326 326 327 328 329 330 333 334 335 334 333 333 336 341 345 347 347 347 347 344 341 339 339 341 343 345 346 348 350 352 354 356 359 2
304 303 302 303 304 303 302 303 298 292 290 291 291 292 294 296 299 303 305 307 309 310 310 310 310 311 312 311 311 312 314 315 315 315 316 316 315 313 313 315 319 321 321 321 322 323 323 323 323 323 323 324 326 327 328 328 329 330 332 334 334 334 333 333 335 338 343 345 345 346 347 345 342 339 338 339 341 343 345 347 349 351 352 355 358 1
306 305 304 303 303 300 299 298 291 286 290 294 294 293 294 297 300 303 304 305 306 306 306 307 308 308 308 308 308 309 311 313 312 313 315 315 313 311 312 314 317 319 320 320 322 323 324 325 324 324 324 325 327 328 329 329 330 330 332 333 334 334 333 333 334 336 340 343 344 344 346 346 344 340 337 337 339 341 343 345 348 350 351 353 357 0
309 306 302 299 298 297 295 294 290 288 294 298 295 293 296 299 302 303 303 303 304 304 304 306 306 306 306 306 306 307 310 312 312 314 316 316 312 310 312 314 317 319 319 321 323 325 326 326 325 325 326 327 329 330 330 330 331 331 332 333 333 334 333 332 333 334 337 341 343 343 345 346 345 341 338 336 337 340 342 344 347 349 350 352 355 359
307 304 299 296 295 296 296 296 294 295 299 299 294 295 298 301 303 305 304 304 305 304 304 305 306 306 305 305 305 307 310 313 314 315 316 315 312 311 312 314 317 319 320 322 325 326 326 326 327 327 328 329 330 331 331 331 332 333 334 333 333 333 332 330 331 333 335 338 341 342 343 345 346 343 339 336 336 338 341 343 346 347 349 352 354 357
301 302 301 298 296 299 302 303 301 302 304 301 298 297 299 301 303 304 305 305 306 306 306 307 307 307 306 305 305 308 311 313 314 314 315 314 312 312 314 316 319 321 322 324 326 326 326 326 327 328 328 329 330 331 331 332 333 334 336 335 334 333 332 330 331 332 333 335 338 340 341 343 345 344 340 336 335 336 339 342 344 346 348 350 353 355